Location: Little Ridge
(33.0629°N, 96.4547°W)
Time: 12:04:59
(UTC+00:00)

Okean 1 - Pass Details

Date: 08 December 2021
Orbit: 538 x 552 km, 82.5° (Epoch: 22 January)

Event Time Altitude Azimuth Distance (km) Brightness Sun altitude
Rises 12:38:58 0° 357° (N) 2,696 6.6 -8.0°
Reaches altitude 10° 12:41:09 10° 1° (N) 1,800 5.7 -7.6°
Maximum altitude 12:45:04 63° 82° (E) 603 3.8 -6.9°
Drops below altitude 10° 12:48:57 10° 164° (SSE) 1,788 6.5 -6.1°
Sets 12:51:07 0° 168° (SSE) 2,676 7.4 -5.7°
